FW6060 Weather Reports


time (UTC)temp
C
wind
direction
speed
KPH
gust
KPH
rain 1hr
cm
rain 24hr
cm
rain mn
cm
humidity
%
barometer
mb
20260510151508 18 204 1.6 4.8 0.00 0.25 0.00 90 1013.6
20260510150014 16 241 1.6 6.4 0.00 0.25 0.00 93 1013.7
20260510144513 15 329 0.0 6.4 0.00 0.25 0.00 94 1013.9
20260510134513 13 352 0.0 4.8 0.00 0.25 0.00 94 1013.8
20260510133006 12 69 0.0 4.8 0.00 0.25 0.00 94 1013.7
20260510131514 12 161 0.0 4.8 0.00 0.25 0.00 94 1013.9
20260510130026 11 261 0.0 4.8 0.00 0.25 0.00 94 1013.9
20260510123011 11 155 0.0 1.6 0.00 0.25 0.00 94 1013.4
20260510121516 11 155 1.6 8.0 0.00 0.25 0.00 94 1013.2
20260510120016 11 232 0.0 4.8 0.00 0.25 0.00 94 1013.3
20260510114518 10 5 0.0 6.4 0.00 0.25 0.00 94 1013.0
20260510113014 10 112 1.6 4.8 0.00 0.25 0.00 94 1012.8
20260510111523 10 61 0.0 4.8 0.00 0.25 0.00 93 1012.9
20260510110019 10 50 1.6 6.4 0.00 0.25 0.00 93 1012.8
20260510104524 10 51 0.0 4.8 0.00 0.25 0.00 93 1012.5
20260510103013 10 48 0.0 3.2 0.00 0.25 0.00 93 1012.2
20260510093016 10 23 0.0 6.4 0.00 0.25 0.00 93 1012.0
20260510091541 10 322 1.6 4.8 0.00 0.25 0.00 93 1012.2
20260510090021 10 119 1.6 6.4 0.00 0.25 0.00 93 1012.0
20260510084519 9 40 0.0 4.8 0.00 0.25 0.00 93 1012.0
20260510083021 9 5 0.0 0.0 0.00 0.25 0.00 93 1011.5
20260510081534 9 5 0.0 0.0 0.00 0.25 0.00 93 1011.6
20260510080022 10 5 0.0 0.0 0.00 0.25 0.00 93 1011.5
20260510074515 10 5 0.0 0.0 0.00 0.25 0.00 93 1011.5
20260510073031 10 5 0.0 3.2 0.00 0.25 0.00 93 1011.4
20260510071534 9 29 0.0 3.2 0.00 0.25 0.00 93 1011.3
20260510070026 9 60 1.6 3.2 0.00 0.25 0.00 93 1011.2
20260510064542 9 120 0.0 0.0 0.00 0.25 0.00 93 1010.8
20260510063027 9 121 0.0 0.0 0.00 0.25 0.00 92 1010.7
20260510061533 9 120 0.0 0.0 0.00 0.25 0.00 92 1010.9
20260510060032 9 120 0.0 0.0 0.00 0.25 0.00 92 1011.0
20260510054520 9 121 0.0 0.0 0.00 0.25 0.00 92 1011.2
20260510053022 10 120 0.0 0.0 0.00 0.25 0.00 92 1011.1
20260510051525 10 121 0.0 0.0 0.00 0.25 0.00 92 1011.2
20260510050024 9 120 0.0 0.0 0.00 0.25 0.00 92 1011.4
20260510044519 9 121 0.0 0.0 0.00 0.25 0.00 92 1011.4
20260510043024 9 121 0.0 0.0 0.00 0.25 0.00 92 1011.5
20260510041525 9 121 0.0 0.0 0.00 0.25 0.00 92 1011.6
20260510040018 9 121 0.0 0.0 0.00 0.25 0.00 92 1011.6
20260510034519 9 121 0.0 0.0 0.00 0.25 0.25 92 1011.4
20260510033004 10 121 0.0 0.0 0.00 0.25 0.25 92 1011.3
20260510024528 10 121 0.0 0.0 0.03 0.25 0.25 92 1011.2
20260510023009 10 121 0.0 0.0 0.03 0.25 0.25 92 1011.0
20260510021516 11 121 0.0 0.0 0.00 0.23 0.23 91 1010.9
20260510020017 11 121 0.0 0.0 0.00 0.23 0.23 91 1011.0
20260510013006 11 121 0.0 1.6 0.00 0.23 0.23 91 1011.0
20260510011517 12 121 0.0 0.0 0.00 0.23 0.23 91 1011.0
20260510010023 12 121 0.0 1.6 0.00 0.23 0.23 91 1010.7
20260510004523 12 121 0.0 0.0 0.00 0.23 0.23 91 1010.6
20260510003010 12 121 0.0 1.6 0.00 0.23 0.23 91 1010.6
20260510001514 12 121 0.0 0.0 0.00 0.23 0.23 90 1010.4
20260510000025 13 120 0.0 0.0 0.00 0.23 0.23 91 1010.5
20260509234536 13 120 0.0 0.0 0.00 0.23 0.23 91 1010.6
20260509233030 13 121 0.0 1.6 0.00 0.23 0.23 90 1010.5
20260509231519 13 121 0.0 3.2 0.00 0.23 0.23 90 1010.3
20260509230022 13 126 0.0 0.0 0.00 0.23 0.23 90 1010.3
20260509224531 13 126 0.0 3.2 0.00 0.23 0.23 90 1010.3
20260509223018 13 142 1.6 4.8 0.00 0.23 0.23 90 1010.3
20260509221520 13 140 1.6 4.8 0.00 0.23 0.23 90 1010.4
20260509220026 13 106 0.0 4.8 0.20 0.23 0.23 89 1010.7
20260509211521 13 80 0.0 4.8 0.23 0.23 0.23 86 1010.9
20260509210026 13 299 0.0 4.8 0.03 0.03 0.03 84 1011.2
20260509203030 15 305 3.2 6.4 0.00 0.00 0.00 82 1010.5
20260509201523 15 32 3.2 9.7 0.00 0.00 0.00 83 1010.3
20260509200024 15 77 3.2 11.3 0.00 0.00 0.00 83 1010.5
20260509194516 15 298 1.6 6.4 0.00 0.00 0.00 84 1010.4
20260509193020 15 270 3.2 12.9 0.00 0.00 0.00 81 1010.9
20260509191526 15 274 0.0 6.4 0.00 0.00 0.00 79 1011.1
20260509190031 15 34 3.2 12.9 0.00 0.00 0.00 78 1011.1
20260509184526 15 355 1.6 11.3 0.00 0.00 0.00 78 1011.3
20260509183030 15 294 1.6 8.0 0.00 0.00 0.00 75 1011.4
20260509181524 16 306 1.6 12.9 0.00 0.00 0.00 73 1011.3
20260509180027 16 286 3.2 8.0 0.00 0.00 0.00 72 1011.3
20260509174521 16 84 3.2 11.3 0.00 0.00 0.00 73 1011.1
20260509173029 16 295 4.8 12.9 0.00 0.00 0.00 73 1011.2
20260509171533 16 262 3.2 9.7 0.00 0.00 0.00 69 1011.4
20260509170028 16 348 3.2 9.7 0.00 0.00 0.00 71 1011.4
20260509161531 17 248 6.4 14.5 0.00 0.00 0.00 67 1011.6
20260509160029 17 265 1.6 19.3 0.00 0.00 0.00 67 1011.9
20260509154533 17 234 1.6 16.1 0.00 0.00 0.00 68 1012.1